Home > Weather > Maple Ridge > Past weeks

Flag for Canada Weather for the Past 2 Weeks in Maple Ridge, British Columbia, Canada

Now
49 °F

Cool.


Feels Like: 49 °F
Forecast: 37 / 46 °F
Wind: 2 mph from West

Location: P. Meadows Coastal Station

Current Time: Feb 6, 2016 at 1:56:05 PM

Latest Report: Feb 6, 2016 at 1:00 PM


Visibility: N/A

Pressure: 30.45 "Hg

Humidity: 70%

Dew point: 39 °F

Location of Maple RidgeLocation

Historic Weather in Maple Ridge — Graph

°F

Maple Ridge Temperature Yesterday

Maximum temperature yesterday: 53 °F (at 4:00 PM)
Minimum temperature yesterday: 40 °F (at 5:00 AM)
Average temperature yesterday: 45 °F

High & Low Weather Summary for the Past Weeks

 TemperatureHumidityPressure
High56 °F (Jan 28, 2:00 AM)100% (Jan 23, 3:00 AM)30.46 "Hg (Jan 23, 3:00 AM)
Low33 °F (Jan 30, 2:00 AM)59% (Jan 28, 1:00 PM)29.60 "Hg (Jan 29, 11:00 AM)
Average43 °F91%30.05 "Hg
* Reported Jan 22 12:00 Noon — Feb 6 12:00 Noon, Maple Ridge, Weather by CustomWeather, © 2016

Note: Actual official high and low records may vary slightly from our data, if they occured in-between our weather recording intervals... More about our weather records

Advertising

Maple Ridge Weather History for the Previous 24 Hours

 ConditionsComfort  
Time TempWeatherWind HumidityBarometerVisibility
12:00 PM
Sat, Feb 6
47 °FCool.2 mph77%30.46 "HgN/A
11:00 AM46 °FCool.3 mph79%30.45 "HgN/A
10:00 AM45 °FQuite cool.1 mph85%30.43 "HgN/A
9:00 AM42 °FQuite cool.2 mph92%30.40 "HgN/A
8:00 AM41 °FQuite cool.2 mph91%30.38 "HgN/A
7:00 AM42 °FQuite cool.2 mph88%30.35 "HgN/A
6:00 AM44 °FQuite cool.2 mph85%30.31 "HgN/A
5:00 AM44 °FQuite cool.1 mph84%30.28 "HgN/A
4:00 AM44 °FQuite cool.2 mph81%30.26 "HgN/A
3:00 AM42 °FQuite cool.2 mph84%30.23 "HgN/A
2:00 AM42 °FQuite cool.2 mph87%30.20 "HgN/A
1:00 AM43 °FQuite cool.5 mph85%30.17 "HgN/A
12:00 AM44 °FQuite cool.2 mph86%30.13 "HgN/A
11:00 PM
Fri, Feb 5
45 °FCool.5 mph82%30.07 "HgN/A
10:00 PM46 °FCool.17 mph81%29.99 "HgN/A
9:00 PM48 °FCool.7 mph80%29.95 "HgN/A
8:00 PM47 °FCool.9 mph81%29.94 "HgN/A
7:00 PM48 °FCool.3 mph86%29.92 "HgN/A
6:00 PM47 °FCool.9 mph87%29.90 "HgN/A
5:00 PM49 °FCool.5 mph80%29.95 "HgN/A
4:00 PM53 °FCool.7 mph60%29.90 "HgN/A
3:00 PM48 °FCool.2 mph81%29.94 "HgN/A
2:00 PM47 °FCool.8 mph80%29.96 "HgN/A
1:00 PM47 °FCool.8 mph82%30.02 "HgN/A
Weather by CustomWeather, © 2016

See weather overviewHow to use our weather pages